Regional Weather Roundup
Issued by NWS

Home | Current Version | Previous Version | Text Only | Print | Product List | Glossary On
Versions: 1 2 3 4 5 6 7 8 9 10 11 12 13 14 15 16 17 18 19 20 21 22 23 24 25 26 27 28 29 30 31 32 33 34 35 36 37 38 39 40 41 42 43 44 45 46 47 48 49 50
000
ASUS43 KMKX 030200
RWRWI

WISCONSIN REGIONAL WEATHER ROUNDUP
NATIONAL WEATHER SERVICE MILWAUKEE/SULLIVAN WI
800 PM CST FRI DEC 02 2016

NOTE: "FAIR" INDICATES FEW OR NO CLOUDS BELOW 12,000 FEET WITH NO
SIGNIFICANT WEATHER AND/OR OBSTRUCTIONS TO VISIBILITY.

WIZ001-002-006>008-014>016-023>028-030300-
NORTHWEST WISCONSIN

CITY           SKY/WX    TMP DP  RH WIND       PRES   REMARKS
SUPERIOR ARPT  CLOUDY    31  26  81 CALM      30.27S
ASHLAND        CLOUDY    29  24  82 SW9       30.27R WCI  20
HAYWARD        CLOUDY    28  22  78 VRB3      30.26R
SIREN          CLOUDY    30  24  78 NW3       30.28R
CUMBERLAND     CLOUDY    28  23  80 NW3       30.25S
RICE LAKE      CLOUDY    30  24  78 CALM      30.28S
CHETEK         CLOUDY    30  24  77 W3        30.27S
LADYSMITH      CLOUDY    30  24  81 W6        30.27S WCI  24
EAU CLAIRE     NOT AVBL
MENOMONIE      CLOUDY    32  24  72 NW9       30.27F WCI  24
NEW RICHMOND   CLOUDY    30  24  77 W5        30.28S WCI  25
OSCEOLA        CLOUDY    31  24  77 N5        30.31S WCI  26
$$

WIZ003>005-009-010-017-018-030300-
NORTH CENTRAL WISCONSIN

CITY           SKY/WX    TMP DP  RH WIND       PRES   REMARKS
MANITOWISH WTR CLOUDY    28  28 100 W6        30.21R WCI  22
ARBOR VITAE    CLOUDY    32  29  89 W6        30.21R WCI  26
WOODRUFF       CLOUDY    32  29  89 W6        30.21R WCI  26
RHINELANDER    CLOUDY    30  29  96 W6        30.21S WCI  24
EAGLE RIVER    CLOUDY    29  26  87 CALM      30.20S
LAND O LAKES   CLOUDY    30  28  94 CALM      30.21R
PHILLIPS       CLOUDY    28  24  85 CALM      30.23S
TOMAHAWK       CLOUDY    29  26  88 CALM      30.23S
MEDFORD        CLOUDY    28  22  77 W3        30.23S
MERRILL        CLOUDY    31  25  80 W5        30.24F WCI  26
$$

WIZ029-030-035-036-043>047-030300-
CENTRAL WISCONSIN

CITY           SKY/WX    TMP DP  RH WIND       PRES   REMARKS
WAUSAU         CLOUDY    31  23  72 NW9       30.22F WCI  23
MOSINEE        CLOUDY    30  25  80 W10       30.25S WCI  21
MARSHFIELD     CLOUDY    30  22  72 NW8       30.23F WCI  22
STEVENS POINT  CLOUDY    29  22  75 W7        30.26S WCI  22
WAUPACA        CLOUDY    34  25  70 W5        30.26F WCI  30
WAUTOMA        CLOUDY    31  23  72 W8        30.27F WCI  23
WISC RAPIDS    CLOUDY    31  23  72 N6        30.26F WCI  25
CAMP DOUGLAS   NOT AVBL
$$

WIZ011>013-019>022-031-037>040-048>050-030300-
NORTHEAST WISCONSIN

CITY           SKY/WX    TMP DP  RH WIND       PRES   REMARKS
ANTIGO         CLOUDY    30  25  83 W8        30.22R WCI  22
SHAWANO        CLOUDY    35  27  72 W3        30.25S
OCONTO         CLOUDY    35  27  74 W7        30.24R WCI  29
STURGEON BAY   CLOUDY    36  29  75 W10       30.23R WCI  28
GREEN BAY      CLOUDY    36  29  75 W10       30.25S WCI  28
MANITOWOC      NOT AVBL
APPLETON       CLOUDY    32  25  74 W6        30.23S WCI  26
CLINTONVILLE   CLOUDY    32  27  80 W7        30.25S WCI  26
OSHKOSH        CLOUDY    32  24  72 NW8       30.25F WCI  25
$$

WIZ032>034-041-042-053>061-030300-
SOUTHWEST WISCONSIN

CITY           SKY/WX    TMP DP  RH WIND       PRES   REMARKS
LA CROSSE      CLOUDY    34  23  64 NW6       30.30R WCI  29
SPARTA         CLOUDY    32  24  73 NW6       30.29S WCI  26
VIROQUA        CLOUDY    30  24  77 NW7       30.27R WCI  23
BOSCOBEL       CLOUDY    34  23  64 NW5       30.31R WCI  30
PRAIRIE DU CHI CLOUDY    32  21  64 NW5       30.31S WCI  28
PLATTEVILLE    CLOUDY    32  26  80 NW6       30.30R WCI  26
$$

WIZ056-057-062-063-064-067-068-030300-
SOUTH CENTRAL WISCONSIN

CITY           SKY/WX    TMP DP  RH WIND       PRES   REMARKS
REEDSBURG      CLOUDY    30  23  74 NW5       30.29R WCI  25
BARABOO/DELLS  CLOUDY    31  22  71 NW7       30.27S WCI  24
LONE ROCK      NOT AVBL
MINERAL POINT  CLOUDY    32  27  80 W8        30.27F WCI  25
MADISON        CLOUDY    31  21  66 VRB3      30.28R
MIDDLETON      CLOUDY    32  24  72 W6        30.29R WCI  26
WATERTOWN      CLOUDY    31  24  73 NW7       30.27R WCI  25
MONROE         CLOUDY    32  25  74 NW5       30.27S WCI  27
JANESVILLE     CLOUDY    34  25  69 W7        30.28S WCI  28
$$

WIZ051-052-058>065-066-070>072-030300-
SOUTHEAST WISCONSIN

CITY           SKY/WX    TMP DP  RH WIND       PRES   REMARKS
MILWAUKEE      CLOUDY    35  23  61 NW8       30.27R WCI  29
WAUKESHA       NOT AVBL
MILWAUKEE/TIMM CLOUDY    32  21  64 NW6       30.28R WCI  26
RACINE         CLOUDY    34  22  61 VRB7      30.30R WCI  28
BURLINGTON     CLOUDY    32  25  75 CALM      30.28R
KENOSHA        CLOUDY    34  25  69 W9        30.29R WCI  27
FOND DU LAC    CLOUDY    33  23  66 NW8       30.26S WCI  26
SHEBOYGAN      CLOUDY    33  25  72 NW6       30.25F WCI  28
WEST BEND      CLOUDY    32  27  80 W5        30.25S WCI  27
JUNEAU         CLOUDY    31  23  72 NW7       30.27S WCI  24
$$

LSZ147-162-030300-
LAKE SUPERIOR

STATION/POSITION TIME  TEMP    WIND        PRES    WAVE
                       AIR SEA DIR/SP/G            HT/PER
                 (UTC) (F)     (DEG/KT/KT) (MB)    (FT/S)
DEVILS ISLAND    0100   33     260/  8/ 10 1024.8R
PORT WING        0030   31     210/  5/  9 1024.4S
SAXON HARBOR     0040   31     220/  3/  6 1024.4R
$$

LMZ867-665-643>646-030300-
LAKE MICHIGAN

STATION/POSITION TIME  TEMP    WIND        PRES    WAVE
                       AIR SEA DIR/SP/G            HT/PER
                 (UTC) (F)     (DEG/KT/KT) (MB)    (FT/S)
CHAMBERS ISLAND  0040   37     250/  4/  9 1022.4R
NORTHPORT PIER   0040   38     290/  8/ 16 1022.4R
SISTER BAY       0008   38     330/ 16/ 17   N/A
ALGOMA LAKESHORE 0106          270/  9/ 12   N/A
KEWAUNEE LAKESHO 0130   35     290/  8/ 11 1023.2R
SHEBOYGAN LAKESH 0100   34     290/ 12/ 15 1025.1R
PORT WASHINGTON  0030   34     290/  4/  9 1025.7R
MILWAUKEE LAKESH 0130   34     280/  7/  8   N/A
S MID LAKE BUOY  0050   38 49  310/ 12/ 16 1024.6R   2/ 5
KENOSHA   LAKESH 0100   34     340/  7/ 11 1025.4
$$

TC  - TEMPERATURE IN CELSIUS
VSB - VISIBILITY IN STATUTE MILES
WCI - WIND CHILL INDEX
HX  - HEAT INDEX





USA.gov is the U.S. government's official web portal to all federal, state and local government web resources and services.